Regional Weather Roundup
Issued by NWS

Home | Current Version | Previous Version | Graphics & Text | Print | Product List | Glossary On
Versions: 1 2 3 4 5 6 7 8 9 10 11 12 13 14 15 16 17 18 19 20 21 22 23 24 25 26 27 28 29 30 31 32 33 34 35 36 37 38 39 40 41 42 43 44 45 46 47 48 49 50
000
ASUS43 KFSD 191402
RWRSD

WEATHER ROUNDUP FOR SOUTH DAKOTA
NATIONAL WEATHER SERVICE SIOUX FALLS SD
800 AM CST SUN NOV 19 2017

NOTE: "FAIR" INDICATES FEW OR NO CLOUDS BELOW 12,000 FEET WITH NO
SIGNIFICANT WEATHER AND/OR OBSTRUCTIONS TO VISIBILITY.


SDZ001>005-009-010-012>017-191500-
NORTHWEST AND NORTH CENTRAL SOUTH DAKOTA

CITY           SKY/WX    TMP DP  RH WIND       PRES   REMARKS
BUFFALO          N/A     27  17  66 W8        29.87F WCI  19
FAITH            N/A     25  19  78 S12       29.95F WCI  14
MOBRIDGE       CLOUDY    23  19  85 SE7       29.94F WCI  15
$$

SDZ012>016-024>037-041>051-057-063-072>074-191500-
SOUTHWEST AND SOUTH CENTRAL SOUTH DAKOTA

CITY           SKY/WX    TMP DP  RH WIND       PRES   REMARKS
RAPID CTY ARPT CLOUDY    19  11  70 CALM      29.98F
PIERRE         CLEAR     23  19  85 VRB5      30.01F WCI  17
CUSTER         CLOUDY    26  13  57 W8        30.00R WCI  18
ELLSWORTH AFB  CLOUDY    23  15  70 W5        29.97F WCI  17
PHILIP         CLEAR     25  21  85 W8        30.01F WCI  16
PINE RIDGE     CLEAR     22  15  75 W5        30.05S WCI  16
SPEARFISH      FAIR      39  14  35 W13       29.96S
WINNER         FAIR      29  20  69 SW9       30.05F WCI  20
$$

SDZ004>011-016>023-039-040-191500-
NORTHEAST SOUTH DAKOTA

CITY           SKY/WX    TMP DP  RH WIND       PRES   REMARKS
ABERDEEN       PTCLDY    17  15  92 SE10      30.00S WCI   5
WATERTOWN      CLOUDY    23  21  92 SW9       29.99F WCI  13
BROOKINGS      CLOUDY    22  17  81 S7        30.04F WCI  13
SISSETON         N/A     30  21  69 W5        29.96F WCI  25
$$

SDZ017-020-022-023-036>040-048>070-191500-
SOUTHEAST SOUTH DAKOTA

CITY           SKY/WX    TMP DP  RH WIND       PRES   REMARKS
SIOUX FALLS    CLOUDY    27  19  72 SW5       30.08S WCI  22
HURON          CLOUDY    21  19  92 S7        30.04F WCI  12
CHAMBERLAIN    CLEAR     25  23  95 SW6       30.05F WCI  18
MITCHELL       CLOUDY    27  22  81 SW8       30.07F WCI  19
YANKTON        CLOUDY    19  17  92 CALM      30.11S
$$

ABBREVIATIONS USED IN REMARKS
   TC - TEMPERATURE IN CELSIUS
  WCI - WIND CHILL INDEX
   HX - HEAT INDEX
  VSB - VISIBILITY





USA.gov is the U.S. government's official web portal to all federal, state and local government web resources and services.